BREEZE-M DEB (TANK), 33374

Orbit data source: Space-Track

BREEZE-M DEB (TANK), 33374 is space debris in HEO originally from a launch on Fri, 19 Sep 2008 UTC launched from the Tyuratam Missile And Space Complex (TTMTR). Debris objects in space refer to the collection of defunct objects orbiting the Earth. Examples of debris include non-operational satellites, rocket bodies, and fragments generated from explosions, collisions, or faulty payload assembly.

Loading next visibility...
Identifier
33374, 2008-044B
Orbit
HEO
Last TLE update
15 hours ago
Origin
Manufacturer
Khrunichev
Mission
Spacecraft
Bus & Motor
BRIZ TANK, Unknown motor
Mass
~1,000 kg wet, 1,000 kg dry
Launch date (UTC)
2008-09-19 (17 years ago)
Launch vehicle
Unknown
Launch site
Tyuratam Missile And Space Complex (TTMTR)
Object type
Payload
Rocket body
Debris
Shape & HBR
Torus, 4 m
Radar Cross Section
8.218 m², Large (>1 m²)

Expand to show TLE details & history

TLE from 15 hours ago
0 BREEZE-M DEB (TANK)
1 33374U 08044B   25129.15694136  .00003563  00000-0  16622-2 0  9996
2 33374  49.4688  45.5282 5366985  27.5621 352.7608  4.95118891295173
Epoch: 2025-05-09T03:45Z
Definitive object data (Epoch: 2025-05-09T03:45:59.733Z)
Latitude
-0.00011°
Longitude
121.81532°
Altitude
629.607 km
Speed
9.293 km/s
True Right ascension
03h 02m 07s
True Declination
0° 00' 00"
Sunlit
Object was in daylight at TLE epoch
Visualization TLE readout
Latitude
25.4051°
Longitude
-82.51759°
Altitude
7,423.877 km
Speed
5.511 km/s
Apparent Right ascension
13h 56m 31s
Apparent Declination
6° 10' 45"
Sunlit
Object is in daylight
Visualization observer readout
Local Sidereal Time
03:18:47
Azimuth
27.192° NE
Elevation
-40.155°
Doppler factor
1
Orbital elements
Apogee altitude
15,968.107 km
Perigee altitude
359.065 km
Semi-major axis
14,541.723 km
Eccentricity
0.5366985
Inclination
49.4688°
RAAN
45.5282°
Arg. of periapsis
27.5621°
True anomaly
332.3147°
Mean anomaly
352.7608°
Eccentric anomaly
344.58923°
Mean motion
1.23771 °/min
BSTAR
0.0016622
Orbital period
290.86 mins
Loading maneuver chart data...
Loading SW <> Apogee altitude chart data...
Loading historical data...
Loading historical data...
Loading historical data...
Loading historical data...
Loading historical data...
Loading historical data...
Loading historical data...
Other satellites on launch #44 in the year 2008 (2008-09-19 UTC)

BREEZE-M DEB (TANK) Visibility forecast

Observer location: undefined°, undefined°

Span
Click to sort rows by Start time (UTC) header in descending order
Start Az.
Max El. time (UTC)
Max El. Az.
Max El.
End time (UTC)
End Az.
19 mins2025-05-09 23:21:52.191Z280.865° WNW2025-05-09 23:25:52.191Z358.289° N36.969°2025-05-09 23:40:52.191Z68.027° E
124 mins2025-05-10 04:23:52.191Z300.438° NW2025-05-10 04:38:52.191Z214.584° SW44.208°2025-05-10 06:27:52.191Z156.116° SSE
|